#
# The Tor Project
#
# URL: https://metrics.torproject.org/userstats-relay-country.csv?start=2011-11-14&end=2015-02-12&country=kp&events=off
#
date,country,users,lower,upper,frac
2011-11-14,kp,61,15,96,48
2011-11-15,kp,59,12,93,47
2011-11-16,kp,61,15,110,49
2011-11-17,kp,66,25,119,47
2011-11-18,kp,65,25,111,46
2011-11-19,kp,52,24,110,46
2011-11-20,kp,44,19,105,44
2011-11-21,kp,45,26,114,46
2011-11-22,kp,59,23,113,46
2011-11-23,kp,75,24,129,41
2011-11-24,kp,74,26,219,44
2011-11-25,kp,48,9,203,72
2011-11-26,kp,47,11,152,43
2011-11-27,kp,52,15,94,42
2011-11-28,kp,56,16,85,43
2011-11-29,kp,63,19,108,46
2011-11-30,kp,58,16,133,42
2011-12-01,kp,72,10,116,36
2011-12-02,kp,65,4,121,39
2011-12-03,kp,62,7,100,38
2011-12-04,kp,58,16,94,43
2011-12-05,kp,47,23,121,37
2011-12-06,kp,62,25,127,40
2011-12-07,kp,68,23,123,43
2011-12-08,kp,61,27,131,39
2011-12-09,kp,67,22,121,39
2011-12-10,kp,59,25,114,44
2011-12-11,kp,60,24,120,43
2011-12-12,kp,72,16,88,43
2011-12-13,kp,72,25,121,44
2011-12-14,kp,68,28,127,40
2011-12-15,kp,71,24,114,40
2011-12-16,kp,62,28,131,35
2011-12-17,kp,58,24,119,44
2011-12-18,kp,53,24,115,46
2011-12-19,kp,73,30,130,48
2011-12-20,kp,84,32,130,52
2011-12-21,kp,94,30,124,51
2011-12-22,kp,97,32,127,51
2011-12-23,kp,97,25,106,48
2011-12-24,kp,102,21,100,54
2011-12-25,kp,128,20,112,47
2011-12-26,kp,110,29,125,48
2011-12-27,kp,92,40,149,45
2011-12-28,kp,85,41,173,45
2011-12-29,kp,92,45,174,46
2011-12-30,kp,94,46,179,46
2011-12-31,kp,67,48,180,48
2012-01-01,kp,53,47,198,48
2012-01-02,kp,61,49,215,50
2012-01-03,kp,62,41,167,49
2012-01-04,kp,60,40,161,48
2012-01-05,kp,61,43,202,48
2012-01-06,kp,65,32,243,50
2012-01-07,kp,60,23,232,66
2012-01-09,kp,63,17,227,70
2012-01-10,kp,62,17,191,83
2012-01-11,kp,66,21,124,53
2012-01-12,kp,60,17,129,48
2012-01-13,kp,65,15,137,55
2012-01-14,kp,75,12,118,50
2012-01-15,kp,69,,,55
2012-01-16,kp,87,11,121,59
2012-01-17,kp,100,11,131,53
2012-01-18,kp,88,28,122,52
2012-01-19,kp,87,21,117,53
2012-01-20,kp,79,21,147,54
2012-01-21,kp,58,24,151,56
2012-01-22,kp,40,24,141,56
2012-01-23,kp,29,26,169,59
2012-01-24,kp,39,38,185,61
2012-01-25,kp,61,38,167,60
2012-01-26,kp,84,32,161,60
2012-01-27,kp,81,22,155,58
2012-01-28,kp,68,17,116,59
2012-01-29,kp,71,10,93,56
2012-01-30,kp,77,5,81,59
2012-01-31,kp,92,13,84,58
2012-02-01,kp,97,24,128,58
2012-02-02,kp,91,37,165,62
2012-02-03,kp,79,34,169,60
2012-02-04,kp,68,27,139,61
2012-02-05,kp,65,26,137,60
2012-02-06,kp,59,33,142,62
2012-02-07,kp,81,34,167,65
2012-02-08,kp,93,48,185,62
2012-02-09,kp,90,46,182,60
2012-02-10,kp,81,34,145,58
2012-02-11,kp,81,34,124,58
2012-02-12,kp,87,32,117,60
2012-02-13,kp,94,24,130,58
2012-02-14,kp,108,35,176,58
2012-02-15,kp,89,39,163,62
2012-02-16,kp,72,38,153,63
2012-02-17,kp,69,39,150,63
2012-02-18,kp,93,38,143,63
2012-02-19,kp,92,41,152,61
2012-02-20,kp,100,40,167,60
2012-02-21,kp,100,40,198,64
2012-02-22,kp,107,41,161,62
2012-02-23,kp,93,29,133,64
2012-02-24,kp,80,26,127,69
2012-02-25,kp,76,46,172,66
2012-02-26,kp,83,41,177,65
2012-02-27,kp,95,41,182,69
2012-02-28,kp,123,44,178,68
2012-02-29,kp,85,51,172,70
2012-03-01,kp,84,48,160,65
2012-03-02,kp,80,36,140,67
2012-03-03,kp,80,32,126,67
2012-03-04,kp,81,39,140,64
2012-03-05,kp,78,46,168,67
2012-03-06,kp,88,62,208,67
2012-03-07,kp,76,41,153,68
2012-03-08,kp,81,41,134,68
2012-03-09,kp,76,41,137,64
2012-03-10,kp,86,40,139,64
2012-03-11,kp,72,39,141,64
2012-03-12,kp,91,36,132,67
2012-03-13,kp,89,43,140,67
2012-03-14,kp,89,36,123,68
2012-03-15,kp,99,40,136,68
2012-03-16,kp,89,36,123,69
2012-03-17,kp,68,42,140,67
2012-03-18,kp,75,31,120,68
2012-03-19,kp,97,45,151,68
2012-03-20,kp,108,42,158,66
2012-03-21,kp,100,42,153,71
2012-03-22,kp,92,49,173,68
2012-03-23,kp,85,46,144,69
2012-03-24,kp,95,28,127,67
2012-03-25,kp,97,33,142,67
2012-03-26,kp,83,50,163,67
2012-03-27,kp,75,56,179,66
2012-03-28,kp,74,53,164,69
2012-03-29,kp,81,38,166,67
2012-03-30,kp,91,39,160,67
2012-03-31,kp,73,42,175,66
2012-04-01,kp,70,47,174,65
2012-04-02,kp,66,39,142,68
2012-04-03,kp,70,35,129,68
2012-04-04,kp,68,33,136,67
2012-04-05,kp,97,28,166,65
2012-04-06,kp,94,32,184,66
2012-04-07,kp,68,28,142,66
2012-04-08,kp,65,28,130,65
2012-04-09,kp,70,28,124,65
2012-04-10,kp,85,32,128,67
2012-04-11,kp,103,32,123,67
2012-04-12,kp,93,42,186,66
2012-04-13,kp,83,30,205,65
2012-04-14,kp,66,24,146,65
2012-04-15,kp,49,23,136,64
2012-04-16,kp,66,24,142,64
2012-04-17,kp,91,43,142,65
2012-04-18,kp,86,52,180,66
2012-04-19,kp,86,48,166,63
2012-04-20,kp,73,39,146,65
2012-04-21,kp,62,27,126,64
2012-04-22,kp,74,18,103,62
2012-04-23,kp,78,28,121,63
2012-04-24,kp,72,45,153,63
2012-04-25,kp,73,36,161,63
2012-04-26,kp,90,35,155,63
2012-04-27,kp,72,34,134,62
2012-04-28,kp,70,27,115,62
2012-04-29,kp,76,34,132,62
2012-04-30,kp,84,33,147,62
2012-05-01,kp,66,28,146,56
2012-05-02,kp,81,33,137,60
2012-05-03,kp,93,47,186,56
2012-05-04,kp,85,38,158,54
2012-05-05,kp,68,32,162,55
2012-05-06,kp,84,40,162,53
2012-05-07,kp,82,44,176,57
2012-05-08,kp,92,29,138,60
2012-05-09,kp,90,42,148,59
2012-05-10,kp,92,47,157,54
2012-05-11,kp,83,42,133,57
2012-05-12,kp,68,31,110,58
2012-05-13,kp,81,39,139,58
2012-05-14,kp,93,39,143,57
2012-05-15,kp,101,47,162,57
2012-05-16,kp,85,45,166,57
2012-05-17,kp,82,47,169,56
2012-05-18,kp,59,38,160,58
2012-05-19,kp,47,28,140,57
2012-05-20,kp,50,34,164,57
2012-05-21,kp,66,46,173,58
2012-05-22,kp,75,54,175,59
2012-05-23,kp,73,41,149,57
2012-05-24,kp,85,38,140,56
2012-05-25,kp,74,25,106,55
2012-05-26,kp,66,18,86,59
2012-05-27,kp,80,20,95,57
2012-05-28,kp,89,29,116,58
2012-05-29,kp,106,33,133,58
2012-05-30,kp,101,33,126,58
2012-05-31,kp,86,41,144,59
2012-06-01,kp,83,33,131,59
2012-06-02,kp,79,26,127,60
2012-06-03,kp,94,33,143,59
2012-06-04,kp,98,44,152,59
2012-06-05,kp,94,54,179,59
2012-06-06,kp,87,55,162,57
2012-06-07,kp,89,43,142,60
2012-06-08,kp,82,40,138,59
2012-06-09,kp,71,37,139,58
2012-06-10,kp,81,48,155,58
2012-06-11,kp,93,46,155,62
2012-06-12,kp,89,44,151,60
2012-06-13,kp,79,42,137,63
2012-06-14,kp,83,45,150,59
2012-06-15,kp,85,41,139,57
2012-06-16,kp,64,33,121,58
2012-06-17,kp,48,37,141,57
2012-06-18,kp,62,49,159,59
2012-06-19,kp,61,42,165,61
2012-06-20,kp,65,39,139,61
2012-06-21,kp,66,40,137,61
2012-06-22,kp,66,45,141,59
2012-06-23,kp,60,31,113,58
2012-06-24,kp,58,21,89,58
2012-06-25,kp,64,28,117,59
2012-06-26,kp,62,26,116,59
2012-06-27,kp,61,30,117,60
2012-06-28,kp,73,32,119,59
2012-06-29,kp,63,31,112,57
2012-06-30,kp,50,27,106,57
2012-07-01,kp,46,27,102,57
2012-07-02,kp,51,29,111,59
2012-07-03,kp,49,29,105,60
2012-07-04,kp,41,28,103,62
2012-07-05,kp,45,34,120,62
2012-07-06,kp,41,28,107,62
2012-07-07,kp,40,20,87,61
2012-07-08,kp,41,18,80,59
2012-07-09,kp,48,21,89,61
2012-07-10,kp,43,19,89,62
2012-07-11,kp,38,15,79,62
2012-07-12,kp,43,18,87,60
2012-07-13,kp,61,15,80,60
2012-07-14,kp,61,15,79,60
2012-07-15,kp,66,16,80,59
2012-07-16,kp,86,21,89,60
2012-07-17,kp,82,18,79,61
2012-07-18,kp,65,14,73,60
2012-07-19,kp,84,17,80,61
2012-07-20,kp,83,28,108,60
2012-07-21,kp,65,28,107,59
2012-07-22,kp,58,30,112,60
2012-07-23,kp,82,42,145,60
2012-07-24,kp,91,41,139,60
2012-07-25,kp,89,29,115,59
2012-07-26,kp,57,39,141,60
2012-07-27,kp,53,40,149,59
2012-07-28,kp,74,27,121,60
2012-07-29,kp,72,25,111,60
2012-07-30,kp,93,45,138,61
2012-07-31,kp,81,48,151,63
2012-08-01,kp,78,47,152,61
2012-08-02,kp,60,25,110,61
2012-08-03,kp,56,21,99,61
2012-08-04,kp,49,33,128,63
2012-08-05,kp,51,33,125,62
2012-08-06,kp,56,48,157,61
2012-08-07,kp,67,40,143,60
2012-08-08,kp,74,38,130,59
2012-08-09,kp,76,27,108,59
2012-08-10,kp,67,25,104,60
2012-08-11,kp,56,21,98,60
2012-08-12,kp,59,22,97,60
2012-08-13,kp,78,26,99,59
2012-08-14,kp,63,31,119,60
2012-08-15,kp,55,36,125,61
2012-08-16,kp,74,36,125,61
2012-08-17,kp,64,31,116,60
2012-08-18,kp,49,21,108,58
2012-08-19,kp,57,22,119,58
2012-08-20,kp,69,31,144,59
2012-08-21,kp,71,26,114,59
2012-08-22,kp,67,20,110,61
2012-08-23,kp,63,36,129,62
2012-08-24,kp,62,30,113,61
2012-08-25,kp,60,19,99,61
2012-08-26,kp,59,21,117,62
2012-08-27,kp,71,29,129,62
2012-08-28,kp,68,34,128,63
2012-08-29,kp,72,32,122,62
2012-08-30,kp,65,28,114,64
2012-08-31,kp,53,29,110,63
2012-09-01,kp,48,27,106,62
2012-09-02,kp,52,28,110,63
2012-09-03,kp,57,34,130,64
2012-09-04,kp,49,34,123,64
2012-09-05,kp,47,35,138,60
2012-09-06,kp,43,22,109,73
2012-09-07,kp,44,20,99,65
2012-09-08,kp,44,21,93,62
2012-09-09,kp,40,22,100,57
2012-09-10,kp,62,27,110,59
2012-09-11,kp,68,22,94,58
2012-09-12,kp,65,19,87,56
2012-09-13,kp,73,20,105,61
2012-09-14,kp,66,20,100,54
2012-09-15,kp,63,20,88,52
2012-09-16,kp,62,17,85,55
2012-09-17,kp,59,30,110,56
2012-09-18,kp,68,32,108,57
2012-09-19,kp,66,29,113,56
2012-09-20,kp,58,32,122,60
2012-09-21,kp,63,23,120,56
2012-09-22,kp,52,27,112,55
2012-09-23,kp,54,30,106,49
2012-09-24,kp,71,27,99,57
2012-09-25,kp,69,34,125,55
2012-09-26,kp,67,31,130,56
2012-09-27,kp,66,28,122,55
2012-09-28,kp,64,32,124,57
2012-09-29,kp,60,25,108,51
2012-09-30,kp,52,24,100,52
2012-10-01,kp,60,38,125,56
2012-10-02,kp,62,36,128,54
2012-10-03,kp,56,35,120,54
2012-10-04,kp,56,37,118,55
2012-10-05,kp,59,35,118,55
2012-10-06,kp,49,30,103,52
2012-10-07,kp,48,25,95,50
2012-10-08,kp,52,31,107,56
2012-10-09,kp,44,31,102,57
2012-10-10,kp,35,25,94,57
2012-10-11,kp,59,23,88,58
2012-10-12,kp,57,26,95,60
2012-10-13,kp,47,20,85,55
2012-10-14,kp,38,20,86,55
2012-10-15,kp,45,21,88,60
2012-10-16,kp,43,17,77,60
2012-10-17,kp,44,13,65,57
2012-10-18,kp,42,27,97,64
2012-10-19,kp,34,24,91,64
2012-10-20,kp,34,19,83,57
2012-10-21,kp,38,13,70,57
2012-10-22,kp,46,17,80,57
2012-10-23,kp,54,17,81,56
2012-10-24,kp,56,18,78,56
2012-10-25,kp,45,16,83,54
2012-10-26,kp,49,12,73,53
2012-10-27,kp,47,12,66,55
2012-10-28,kp,36,12,75,57
2012-10-29,kp,37,16,96,56
2012-10-30,kp,46,23,98,56
2012-10-31,kp,52,23,94,58
2012-11-01,kp,44,15,86,61
2012-11-02,kp,42,19,94,60
2012-11-03,kp,34,18,92,58
2012-11-04,kp,39,13,69,56
2012-11-05,kp,51,15,77,55
2012-11-06,kp,47,17,83,59
2012-11-07,kp,38,21,103,64
2012-11-08,kp,38,19,87,65
2012-11-09,kp,37,14,90,60
2012-11-10,kp,31,11,73,54
2012-11-11,kp,34,13,78,60
2012-11-12,kp,41,21,86,57
2012-11-13,kp,35,20,87,50
2012-11-14,kp,33,14,72,65
2012-11-15,kp,37,9,53,88
2012-11-16,kp,39,11,62,73
2012-11-17,kp,49,10,61,60
2012-11-18,kp,54,12,66,60
2012-11-19,kp,66,15,72,62
2012-11-20,kp,58,12,67,62
2012-11-21,kp,57,11,67,61
2012-11-22,kp,73,20,104,60
2012-11-23,kp,72,18,92,58
2012-11-24,kp,59,22,90,58
2012-11-25,kp,57,24,95,60
2012-11-26,kp,64,35,113,59
2012-11-27,kp,75,29,103,60
2012-11-28,kp,75,28,99,61
2012-11-29,kp,70,36,121,63
2012-11-30,kp,77,36,122,60
2012-12-01,kp,61,27,106,60
2012-12-02,kp,45,25,103,60
2012-12-03,kp,48,31,107,60
2012-12-04,kp,53,37,124,61
2012-12-05,kp,72,42,132,60
2012-12-06,kp,90,38,119,60
2012-12-07,kp,79,42,127,60
2012-12-08,kp,68,29,111,59
2012-12-09,kp,65,19,85,61
2012-12-10,kp,80,23,90,61
2012-12-11,kp,95,25,96,61
2012-12-12,kp,104,36,118,60
2012-12-13,kp,96,49,144,60
2012-12-14,kp,89,41,133,61
2012-12-15,kp,73,32,113,62
2012-12-16,kp,69,31,110,57
2012-12-17,kp,99,41,127,55
2012-12-18,kp,109,54,151,57
2012-12-19,kp,104,59,157,57
2012-12-20,kp,110,54,154,55
2012-12-21,kp,107,48,139,58
2012-12-22,kp,110,35,123,57
2012-12-23,kp,100,30,119,56
2012-12-24,kp,83,38,177,56
2012-12-25,kp,111,35,190,56
2012-12-26,kp,106,47,169,52
2012-12-27,kp,101,58,175,52
2012-12-28,kp,108,59,171,53
2012-12-29,kp,92,65,176,55
2012-12-30,kp,80,52,168,57
2012-12-31,kp,63,36,152,57
2013-01-01,kp,46,52,196,58
2013-01-02,kp,54,55,192,57
2013-01-03,kp,66,53,169,59
2013-01-04,kp,85,63,172,58
2013-01-05,kp,94,44,159,60
2013-01-06,kp,95,38,152,56
2013-01-07,kp,91,25,141,57
2013-01-08,kp,76,15,117,60
2013-01-09,kp,79,21,109,59
2013-01-10,kp,100,30,121,59
2013-01-11,kp,104,43,149,58
2013-01-12,kp,80,50,165,59
2013-01-13,kp,73,50,161,59
2013-01-14,kp,100,49,152,57
2013-01-15,kp,90,39,128,56
2013-01-16,kp,83,39,125,58
2013-01-17,kp,100,55,160,50
2013-01-18,kp,78,52,152,53
2013-01-19,kp,51,36,129,47
2013-01-20,kp,59,33,115,47
2013-01-21,kp,87,50,150,47
2013-01-22,kp,79,42,140,46
2013-01-23,kp,75,38,129,46
2013-01-24,kp,75,48,143,54
2013-01-25,kp,76,42,140,54
2013-01-26,kp,66,21,95,57
2013-01-27,kp,64,29,114,55
2013-01-28,kp,67,46,155,53
2013-01-29,kp,87,43,140,56
2013-01-30,kp,92,43,149,52
2013-01-31,kp,83,39,154,53
2013-02-01,kp,70,36,135,53
2013-02-02,kp,66,32,128,51
2013-02-03,kp,71,23,95,68
2013-02-04,kp,54,20,78,85
2013-02-05,kp,54,34,109,74
2013-02-06,kp,75,39,143,56
2013-02-07,kp,92,34,139,63
2013-02-08,kp,103,31,117,61
2013-02-09,kp,69,29,109,62
2013-02-10,kp,43,36,146,62
2013-02-11,kp,62,31,150,60
2013-02-12,kp,73,27,132,63
2013-02-13,kp,83,40,125,63
2013-02-14,kp,94,54,150,61
2013-02-15,kp,68,58,162,62
2013-02-16,kp,34,32,116,66
2013-02-17,kp,40,16,84,65
2013-02-18,kp,64,25,111,66
2013-02-19,kp,81,28,130,58
2013-02-20,kp,66,39,134,61
2013-02-21,kp,71,47,141,62
2013-02-22,kp,67,33,111,60
2013-02-23,kp,45,13,66,60
2013-02-24,kp,41,16,75,56
2013-02-25,kp,64,33,114,57
2013-02-26,kp,76,46,138,57
2013-02-27,kp,79,37,121,55
2013-02-28,kp,82,41,127,56
2013-03-01,kp,74,37,123,57
2013-03-02,kp,79,20,97,57
2013-03-03,kp,70,17,84,58
2013-03-04,kp,91,32,114,60
2013-03-05,kp,113,41,134,57
2013-03-06,kp,108,41,129,54
2013-03-07,kp,100,44,132,53
2013-03-08,kp,79,37,114,57
2013-03-09,kp,73,35,118,63
2013-03-10,kp,90,33,124,57
2013-03-11,kp,97,48,158,56
2013-03-12,kp,62,57,183,54
2013-03-13,kp,32,56,150,62
2013-03-14,kp,50,53,166,59
2013-03-15,kp,72,38,150,58
2013-03-16,kp,69,36,151,55
2013-03-17,kp,79,47,165,54
2013-03-18,kp,80,54,185,55
2013-03-19,kp,82,29,137,56
2013-03-20,kp,75,13,80,56
2013-03-21,kp,74,23,101,57
2013-03-22,kp,85,39,136,55
2013-03-23,kp,66,36,123,55
2013-03-24,kp,77,41,136,54
2013-03-25,kp,78,38,135,56
2013-03-26,kp,86,40,138,57
2013-03-27,kp,94,35,128,57
2013-03-28,kp,97,29,137,56
2013-03-29,kp,88,32,146,54
2013-03-30,kp,78,29,115,53
2013-03-31,kp,80,35,128,54
2013-04-01,kp,101,35,145,52
2013-04-02,kp,102,39,155,52
2013-04-03,kp,87,48,153,55
2013-04-04,kp,71,49,170,55
2013-04-05,kp,56,38,177,54
2013-04-06,kp,68,37,146,52
2013-04-07,kp,67,39,144,53
2013-04-08,kp,75,51,165,54
2013-04-09,kp,67,53,154,58
2013-04-10,kp,79,45,136,57
2013-04-11,kp,96,34,106,56
2013-04-12,kp,84,23,88,59
2013-04-13,kp,79,25,103,61
2013-04-14,kp,68,26,103,60
2013-04-15,kp,74,33,107,58
2013-04-16,kp,75,30,102,61
2013-04-17,kp,81,38,114,62
2013-04-18,kp,73,49,138,62
2013-04-19,kp,69,43,129,61
2013-04-20,kp,67,40,128,62
2013-04-21,kp,63,34,113,62
2013-04-22,kp,73,38,122,63
2013-04-23,kp,81,39,125,63
2013-04-24,kp,69,44,129,65
2013-04-25,kp,70,38,120,63
2013-04-26,kp,91,35,111,64
2013-04-27,kp,87,34,125,58
2013-04-28,kp,80,32,119,58
2013-04-29,kp,94,38,129,60
2013-04-30,kp,91,41,144,61
2013-05-01,kp,64,30,139,59
2013-05-02,kp,94,35,134,59
2013-05-03,kp,89,48,165,59
2013-05-04,kp,88,44,144,58
2013-05-05,kp,78,38,141,57
2013-05-06,kp,69,53,150,57
2013-05-07,kp,88,51,149,59
2013-05-08,kp,93,28,121,59
2013-05-09,kp,85,46,152,62
2013-05-10,kp,87,43,138,62
2013-05-11,kp,78,42,140,62
2013-05-12,kp,77,34,126,62
2013-05-13,kp,86,30,110,64
2013-05-14,kp,70,42,140,64
2013-05-15,kp,66,47,149,62
2013-05-16,kp,78,43,160,58
2013-05-17,kp,68,47,167,57
2013-05-18,kp,66,40,151,56
2013-05-19,kp,65,38,153,57
2013-05-20,kp,73,48,163,59
2013-05-21,kp,86,36,127,59
2013-05-22,kp,87,33,122,59
2013-05-23,kp,97,38,130,61
2013-05-24,kp,92,32,109,60
2013-05-25,kp,83,29,115,57
2013-05-26,kp,76,29,112,59
2013-05-27,kp,92,35,123,59
2013-05-28,kp,102,45,131,61
2013-05-29,kp,96,48,136,60
2013-05-30,kp,93,54,156,60
2013-05-31,kp,103,49,148,60
2013-06-01,kp,78,43,131,59
2013-06-02,kp,63,39,121,59
2013-06-03,kp,86,47,148,60
2013-06-04,kp,103,54,172,60
2013-06-05,kp,91,47,161,59
2013-06-06,kp,73,44,150,61
2013-06-07,kp,91,53,157,64
2013-06-08,kp,93,39,133,57
2013-06-09,kp,77,30,108,57
2013-06-10,kp,89,47,140,59
2013-06-11,kp,95,54,171,60
2013-06-12,kp,92,42,155,62
2013-06-13,kp,99,34,134,60
2013-06-14,kp,83,49,164,59
2013-06-15,kp,71,43,141,63
2013-06-16,kp,63,33,126,63
2013-06-17,kp,84,41,135,65
2013-06-18,kp,82,47,138,64
2013-06-19,kp,73,49,149,62
2013-06-20,kp,88,56,160,58
2013-06-21,kp,89,43,138,57
2013-06-22,kp,66,34,130,59
2013-06-23,kp,62,28,116,61
2013-06-24,kp,57,41,155,61
2013-06-25,kp,55,44,141,63
2013-06-26,kp,67,36,125,61
2013-06-27,kp,70,41,138,63
2013-06-28,kp,73,46,146,60
2013-06-29,kp,63,32,121,58
2013-06-30,kp,61,28,124,59
2013-07-01,kp,64,25,112,57
2013-07-02,kp,55,25,102,59
2013-07-03,kp,51,34,112,59
2013-07-04,kp,72,37,127,59
2013-07-05,kp,91,36,125,57
2013-07-06,kp,82,29,106,57
2013-07-07,kp,77,27,107,57
2013-07-08,kp,89,31,105,58
2013-07-09,kp,78,24,97,60
2013-07-10,kp,82,21,90,61
2013-07-11,kp,94,33,110,64
2013-07-12,kp,95,44,129,65
2013-07-13,kp,96,38,125,63
2013-07-14,kp,82,35,119,62
2013-07-15,kp,90,44,129,64
2013-07-16,kp,107,40,127,60
2013-07-17,kp,115,43,140,58
2013-07-18,kp,121,53,158,59
2013-07-19,kp,126,55,167,59
2013-07-20,kp,97,55,171,58
2013-07-21,kp,84,45,152,58
2013-07-22,kp,106,49,148,63
2013-07-23,kp,113,58,171,62
2013-07-24,kp,103,64,178,62
2013-07-25,kp,99,69,187,61
2013-07-26,kp,77,67,184,64
2013-07-27,kp,51,50,160,59
2013-07-28,kp,53,43,136,59
2013-07-29,kp,75,59,177,61
2013-07-30,kp,97,60,182,61
2013-07-31,kp,102,54,162,62
2013-08-01,kp,95,51,158,62
2013-08-02,kp,88,40,136,60
2013-08-03,kp,68,21,92,60
2013-08-04,kp,51,22,95,59
2013-08-05,kp,57,35,126,61
2013-08-06,kp,86,46,162,62
2013-08-07,kp,79,51,166,62
2013-08-08,kp,77,43,161,62
2013-08-09,kp,80,38,153,61
2013-08-10,kp,59,29,115,62
2013-08-11,kp,53,19,93,62
2013-08-12,kp,67,26,109,60
2013-08-13,kp,69,45,155,61
2013-08-14,kp,59,35,145,65
2013-08-15,kp,62,30,154,64
2013-08-16,kp,68,33,155,62
2013-08-17,kp,57,28,124,58
2013-08-18,kp,58,24,108,58
2013-08-19,kp,80,30,141,59
2013-08-20,kp,91,0,308,60
2013-08-21,kp,103,0,446,58
2013-08-22,kp,96,0,746,60
2013-08-23,kp,89,0,1229,61
2013-08-24,kp,69,0,1199,61
2013-08-25,kp,54,0,1310,61
2013-08-26,kp,80,0,1812,63
2013-08-27,kp,91,0,1207,62
2013-08-28,kp,88,0,963,61
2013-08-29,kp,98,0,620,58
2013-08-30,kp,96,19,434,58
2013-08-31,kp,80,16,354,59
2013-09-01,kp,80,10,319,59
2013-09-02,kp,102,17,472,60
2013-09-03,kp,89,22,509,62
2013-09-04,kp,87,29,449,58
2013-09-05,kp,81,40,416,54
2013-09-06,kp,60,47,348,61
2013-09-07,kp,58,46,235,59
2013-09-08,kp,70,49,185,56
2013-09-09,kp,53,58,199,63
2013-09-10,kp,70,53,177,59
2013-09-11,kp,96,51,153,63
2013-09-12,kp,93,48,151,63
2013-09-13,kp,97,31,114,63
2013-09-14,kp,87,29,114,62
2013-09-15,kp,86,37,129,62
2013-09-16,kp,97,25,111,62
2013-09-17,kp,100,33,128,63
2013-09-18,kp,79,56,167,62
2013-09-19,kp,76,51,152,62
2013-09-20,kp,91,54,152,62
2013-09-21,kp,97,50,137,59
2013-09-22,kp,109,48,139,61
2013-09-23,kp,90,54,150,65
2013-09-24,kp,91,58,151,64
2013-09-25,kp,89,41,123,64
2013-09-26,kp,90,41,115,65
2013-09-27,kp,82,52,137,65
2013-09-28,kp,85,56,146,65
2013-09-29,kp,80,63,164,65
2013-09-30,kp,90,50,138,66
2013-10-01,kp,103,51,137,65
2013-10-02,kp,101,49,135,66
2013-10-03,kp,100,51,136,64
2013-10-04,kp,104,44,129,66
2013-10-05,kp,86,44,132,66
2013-10-06,kp,89,41,123,65
2013-10-07,kp,104,49,135,66
2013-10-08,kp,106,54,150,67
2013-10-09,kp,85,43,149,67
2013-10-10,kp,82,39,148,67
2013-10-11,kp,96,40,155,67
2013-10-12,kp,93,30,136,67
2013-10-13,kp,92,30,141,67
2013-10-14,kp,98,32,174,66
2013-10-15,kp,101,38,171,67
2013-10-16,kp,104,39,134,67
2013-10-17,kp,99,42,125,67
2013-10-18,kp,98,53,146,67
2013-10-19,kp,91,48,144,67
2013-10-20,kp,95,46,150,67
2013-10-21,kp,103,50,151,69
2013-10-22,kp,102,54,160,69
2013-10-23,kp,98,56,157,69
2013-10-24,kp,95,56,151,68
2013-10-25,kp,98,53,147,68
2013-10-26,kp,94,51,136,68
2013-10-27,kp,83,53,140,68
2013-10-28,kp,99,55,164,70
2013-10-29,kp,108,55,158,70
2013-10-30,kp,115,54,154,65
2013-10-31,kp,114,50,143,68
2013-11-01,kp,112,50,155,69
2013-11-02,kp,94,50,144,68
2013-11-03,kp,79,42,129,67
2013-11-04,kp,79,47,153,69
2013-11-05,kp,85,51,173,69
2013-11-06,kp,83,60,166,69
2013-11-07,kp,103,62,166,69
2013-11-08,kp,89,60,168,68
2013-11-09,kp,75,50,141,68
2013-11-10,kp,72,40,122,67
2013-11-11,kp,78,39,126,68
2013-11-12,kp,100,44,126,70
2013-11-13,kp,95,42,124,70
2013-11-14,kp,86,47,155,69
2013-11-15,kp,93,35,136,68
2013-11-16,kp,82,29,115,68
2013-11-17,kp,81,28,111,67
2013-11-18,kp,86,29,120,68
2013-11-19,kp,98,40,154,66
2013-11-20,kp,93,42,144,67
2013-11-21,kp,85,43,131,67
2013-11-22,kp,85,51,141,67
2013-11-23,kp,96,45,124,68
2013-11-24,kp,93,44,126,67
2013-11-25,kp,88,49,133,68
2013-11-26,kp,88,58,143,68
2013-11-27,kp,93,54,136,67
2013-11-28,kp,81,47,126,68
2013-11-29,kp,82,47,128,67
2013-11-30,kp,70,56,144,66
2013-12-01,kp,77,54,144,66
2013-12-02,kp,95,50,134,66
2013-12-03,kp,98,49,137,67
2013-12-04,kp,89,54,141,67
2013-12-05,kp,82,44,129,68
2013-12-06,kp,74,43,131,68
2013-12-07,kp,74,36,112,65
2013-12-08,kp,79,41,121,63
2013-12-09,kp,90,54,145,67
2013-12-10,kp,102,56,148,67
2013-12-11,kp,86,49,134,68
2013-12-12,kp,76,44,129,67
2013-12-13,kp,80,37,117,68
2013-12-14,kp,78,38,113,67
2013-12-15,kp,85,41,118,64
2013-12-16,kp,93,49,131,68
2013-12-17,kp,108,57,149,69
2013-12-18,kp,103,46,136,68
2013-12-19,kp,95,38,123,69
2013-12-20,kp,85,40,123,70
2013-12-21,kp,70,39,123,68
2013-12-22,kp,71,43,133,68
2013-12-23,kp,73,45,155,68
2013-12-24,kp,75,47,185,67
2013-12-25,kp,89,31,187,67
2013-12-26,kp,78,39,165,67
2013-12-27,kp,63,43,148,66
2013-12-28,kp,63,33,118,66
2013-12-29,kp,66,35,116,67
2013-12-30,kp,61,35,122,67
2013-12-31,kp,63,32,131,66
2014-01-01,kp,49,37,166,63
2014-01-02,kp,52,33,147,64
2014-01-03,kp,46,28,115,65
2014-01-04,kp,62,29,111,66
2014-01-05,kp,61,30,117,67
2014-01-06,kp,75,23,121,67
2014-01-07,kp,84,26,128,67
2014-01-08,kp,90,13,127,66
2014-01-09,kp,102,19,102,67
2014-01-10,kp,98,17,84,67
2014-01-11,kp,78,28,104,69
2014-01-12,kp,76,29,108,65
2014-01-13,kp,82,37,123,67
2014-01-14,kp,110,45,133,66
2014-01-15,kp,118,48,141,67
2014-01-16,kp,128,58,157,67
2014-01-17,kp,109,57,150,65
2014-01-18,kp,80,43,126,65
2014-01-19,kp,76,39,119,63
2014-01-20,kp,82,43,130,66
2014-01-21,kp,103,64,165,67
2014-01-22,kp,111,67,177,66
2014-01-23,kp,99,75,189,66
2014-01-24,kp,86,62,165,66
2014-01-25,kp,78,42,129,66
2014-01-26,kp,87,38,125,65
2014-01-27,kp,89,46,126,65
2014-01-28,kp,105,58,152,67
2014-01-29,kp,91,66,167,69
2014-01-30,kp,80,55,151,70
2014-01-31,kp,57,49,132,68
2014-02-01,kp,49,42,123,67
2014-02-02,kp,64,48,138,66
2014-02-03,kp,86,50,145,65
2014-02-04,kp,94,63,163,67
2014-02-05,kp,98,53,140,66
2014-02-06,kp,88,42,134,64
2014-02-07,kp,94,26,98,63
2014-02-08,kp,75,20,89,65
2014-02-09,kp,71,31,109,65
2014-02-10,kp,80,44,139,64
2014-02-11,kp,94,51,150,66
2014-02-12,kp,101,57,147,65
2014-02-13,kp,84,49,134,64
2014-02-14,kp,54,54,143,65
2014-02-15,kp,56,40,120,65
2014-02-16,kp,50,37,114,65
2014-02-17,kp,81,44,126,65
2014-02-18,kp,103,54,143,66
2014-02-19,kp,97,59,153,67
2014-02-20,kp,83,46,134,66
2014-02-21,kp,96,26,91,65
2014-02-22,kp,81,27,94,64
2014-02-23,kp,84,23,86,65
2014-02-24,kp,83,44,125,68
2014-02-25,kp,102,58,152,68
2014-02-26,kp,82,56,143,68
2014-02-27,kp,80,43,126,68
2014-02-28,kp,75,54,141,66
2014-03-01,kp,72,43,124,63
2014-03-02,kp,76,44,130,62
2014-03-03,kp,87,44,132,64
2014-03-04,kp,81,59,160,66
2014-03-05,kp,87,44,136,65
2014-03-06,kp,81,43,128,67
2014-03-07,kp,75,40,122,66
2014-03-08,kp,66,36,123,65
2014-03-09,kp,67,39,123,65
2014-03-10,kp,75,47,136,67
2014-03-11,kp,92,44,128,66
2014-03-12,kp,86,47,134,67
2014-03-13,kp,102,44,126,67
2014-03-14,kp,84,38,116,66
2014-03-15,kp,67,31,109,66
2014-03-16,kp,84,31,115,66
2014-03-17,kp,101,39,120,66
2014-03-18,kp,90,51,138,67
2014-03-19,kp,85,47,133,67
2014-03-20,kp,95,60,156,66
2014-03-21,kp,75,47,132,67
2014-03-22,kp,61,32,114,65
2014-03-23,kp,71,43,140,64
2014-03-24,kp,87,56,158,64
2014-03-25,kp,90,49,145,67
2014-03-26,kp,81,44,128,70
2014-03-27,kp,79,53,145,67
2014-03-28,kp,62,39,118,67
2014-03-29,kp,68,28,104,65
2014-03-30,kp,69,33,122,65
2014-03-31,kp,76,46,138,65
2014-04-01,kp,98,52,137,65
2014-04-02,kp,97,47,130,65
2014-04-03,kp,89,43,124,65
2014-04-04,kp,69,32,102,64
2014-04-05,kp,65,36,113,64
2014-04-06,kp,72,35,122,65
2014-04-07,kp,67,44,134,57
2014-04-08,kp,65,52,143,52
2014-04-09,kp,66,51,137,63
2014-04-10,kp,72,45,128,65
2014-04-11,kp,70,32,107,63
2014-04-12,kp,61,30,102,64
2014-04-13,kp,71,32,112,62
2014-04-14,kp,60,29,98,64
2014-04-15,kp,54,31,111,66